Location: Schommer Observatory
(40.5200°N, 74.4500°W)
Time: 17:29:19
(UTC-05:00)

ISS - Pass Details

Date: 12 November 2017
Orbit: 402 x 407 km, 51.6° (Epoch: 24 November)

Event Time Altitude Azimuth Distance (km) Brightness Sun altitude
Exits shadow 04:30:30 12° 28° (NNE) 1,361 -0.9 -24.9°
Drops below altitude 10° 04:31:05 10° 38° (NE) 1,455 -0.6 -24.8°
Sets 04:34:05 0° 68° (ENE) 2,314 1.1 -24.2°
